Location: Dover
(39.1580°N, 75.5250°W)
Time: 01:36:06
(UTC-04:00)

SeaSat 1 - Visible Passes

Search period start: 23 July 2014 00:00
Search period end: 02 August 2014 00:00
Orbit: 746 x 750 km, 108.0° (Epoch: 22 July)

Date Brightness Start Highest point End Pass type
(mag) Time Alt. Az. Time Alt. Az. Time Alt. Az.
23 Jul 4.1 21:10:39 10° S 21:15:00 31° WSW 21:19:23 10° NW visible
25 Jul 4.2 21:25:35 10° SSW 21:29:46 28° WSW 21:33:58 10° NW visible
26 Jul 2.7 20:43:16 10° SSE 20:48:11 76° WSW 20:53:08 10° NNW visible
27 Jul 4.4 21:40:33 10° SSW 21:44:31 24° WSW 21:48:31 10° NW visible
28 Jul 2.8 20:58:02 10° SSE 21:02:55 67° WSW 21:07:51 10° NNW visible
29 Jul 4.5 21:55:34 10° SSW 21:59:18 21° WSW 22:03:02 10° WNW visible
30 Jul 3.0 21:12:48 10° SSE 21:17:39 58° WSW 21:22:32 10° NNW visible
31 Jul 4.7 22:10:38 10° SSW 22:14:04 19° WSW 22:17:31 10° WNW visible
01 Aug 3.1 21:27:36 10° S 21:32:23 51° WSW 21:37:12 10° NW visible
